| time (UTC) | temp F | wind direction | speed MPH | gust MPH | rain 1hr in | rain 24hr in | rain mn in | humidity % | barometer mb |
| 20260504060148 | 65 | 150 | 6.0 | 12.0 | 0.00 | 0.00 | 0.00 | 72 | 1017.9 |
| 20260504050637 | 66 | 115 | 5.0 | 15.0 | 0.00 | 0.00 | 0.00 | 69 | 1018.1 |
| 20260504050205 | 66 | 148 | 7.0 | 15.0 | 0.00 | 0.00 | 0.00 | 69 | 1018.1 |
| 20260504045636 | 66 | 173 | 6.0 | 12.0 | 0.00 | 0.00 | 0.00 | 68 | 1018.0 |
| 20260504045206 | 66 | 157 | 6.0 | 14.0 | 0.00 | 0.00 | 0.00 | 68 | 1018.1 |
| 20260504044657 | 66 | 173 | 7.0 | 14.0 | 0.00 | 0.00 | 0.00 | 67 | 1018.1 |
| 20260504044137 | 66 | 174 | 8.0 | 13.0 | 0.00 | 0.00 | 0.00 | 67 | 1018.2 |
| 20260504043628 | 66 | 159 | 8.0 | 14.0 | 0.00 | 0.00 | 0.00 | 66 | 1018.2 |
| 20260504043158 | 67 | 159 | 5.0 | 14.0 | 0.00 | 0.00 | 0.00 | 66 | 1018.2 |
| 20260504042659 | 67 | 140 | 7.0 | 12.0 | 0.00 | 0.00 | 0.00 | 66 | 1018.2 |
| 20260504042152 | 67 | 130 | 7.0 | 12.0 | 0.00 | 0.00 | 0.00 | 65 | 1018.1 |
| 20260504041643 | 67 | 169 | 5.0 | 12.0 | 0.00 | 0.00 | 0.00 | 65 | 1018.2 |
| 20260504041131 | 67 | 144 | 5.0 | 12.0 | 0.00 | 0.00 | 0.00 | 64 | 1018.3 |
| 20260504040641 | 67 | 126 | 6.0 | 12.0 | 0.00 | 0.00 | 0.00 | 64 | 1018.3 |
| 20260504040153 | 67 | 149 | 7.0 | 12.0 | 0.00 | 0.00 | 0.00 | 63 | 1018.4 |
| 20260504035634 | 67 | 148 | 7.0 | 12.0 | 0.00 | 0.00 | 0.00 | 63 | 1018.3 |
| 20260504035140 | 67 | 164 | 7.0 | 13.0 | 0.00 | 0.00 | 0.00 | 63 | 1018.3 |
| 20260504034651 | 67 | 147 | 8.0 | 13.0 | 0.00 | 0.00 | 0.00 | 62 | 1018.3 |
| 20260504034159 | 68 | 138 | 6.0 | 13.0 | 0.00 | 0.00 | 0.00 | 62 | 1018.2 |
| 20260504033640 | 68 | 122 | 8.0 | 11.0 | 0.00 | 0.00 | 0.00 | 61 | 1018.2 |
| 20260504033152 | 68 | 167 | 7.0 | 11.0 | 0.00 | 0.00 | 0.00 | 61 | 1018.2 |
| 20260504032637 | 68 | 135 | 6.0 | 11.0 | 0.00 | 0.00 | 0.00 | 60 | 1018.3 |
| 20260504032148 | 68 | 138 | 5.0 | 9.0 | 0.00 | 0.00 | 0.00 | 59 | 1018.3 |
| 20260504031634 | 68 | 150 | 4.0 | 11.0 | 0.00 | 0.00 | 0.00 | 58 | 1018.1 |
| 20260504031204 | 68 | 126 | 6.0 | 12.0 | 0.00 | 0.00 | 0.00 | 57 | 1018.1 |
| 20260504030654 | 69 | 145 | 8.0 | 14.0 | 0.00 | 0.00 | 0.00 | 57 | 1018.0 |
| 20260504030136 | 69 | 135 | 8.0 | 14.0 | 0.00 | 0.00 | 0.00 | 56 | 1018.1 |
| 20260504025647 | 68 | 114 | 7.0 | 14.0 | 0.00 | 0.00 | 0.00 | 56 | 1018.0 |
| 20260504025129 | 68 | 138 | 8.0 | 12.0 | 0.00 | 0.00 | 0.00 | 55 | 1018.0 |
| 20260504024659 | 68 | 137 | 5.0 | 7.0 | 0.00 | 0.00 | 0.00 | 55 | 1018.1 |
| 20260504024150 | 68 | 130 | 3.0 | 5.0 | 0.00 | 0.00 | 0.00 | 54 | 1018.1 |
| 20260504023632 | 68 | 133 | 2.0 | 5.0 | 0.00 | 0.00 | 0.00 | 54 | 1018.0 |
| 20260504023142 | 68 | 133 | 3.0 | 5.0 | 0.00 | 0.00 | 0.00 | 53 | 1018.0 |
| 20260504022654 | 68 | 134 | 2.0 | 6.0 | 0.00 | 0.00 | 0.00 | 53 | 1017.9 |
| 20260504022157 | 68 | 135 | 3.0 | 5.0 | 0.00 | 0.00 | 0.00 | 53 | 1017.9 |
| 20260504021648 | 68 | 134 | 4.0 | 5.0 | 0.00 | 0.00 | 0.00 | 53 | 1018.0 |
| 20260504021132 | 69 | 132 | 3.0 | 5.0 | 0.00 | 0.00 | 0.00 | 52 | 1018.0 |
| 20260504020642 | 69 | 132 | 2.0 | 4.0 | 0.00 | 0.00 | 0.00 | 52 | 1018.1 |
| 20260504020146 | 69 | 132 | 1.0 | 3.0 | 0.00 | 0.00 | 0.00 | 52 | 1017.9 |
| 20260504015637 | 69 | 132 | 2.0 | 5.0 | 0.00 | 0.00 | 0.00 | 51 | 1018.0 |
| 20260504015144 | 70 | 132 | 2.0 | 5.0 | 0.00 | 0.00 | 0.00 | 50 | 1017.9 |
| 20260504014644 | 70 | 130 | 3.0 | 5.0 | 0.00 | 0.00 | 0.00 | 50 | 1017.7 |
| 20260504014151 | 70 | 126 | 3.0 | 5.0 | 0.00 | 0.00 | 0.00 | 49 | 1017.7 |
| 20260504013641 | 71 | 117 | 3.0 | 5.0 | 0.00 | 0.00 | 0.00 | 49 | 1017.7 |
| 20260504013141 | 71 | 142 | 2.0 | 6.0 | 0.00 | 0.00 | 0.00 | 48 | 1017.6 |
| 20260504012653 | 71 | 141 | 3.0 | 7.0 | 0.00 | 0.00 | 0.00 | 48 | 1017.7 |
| 20260504012133 | 71 | 138 | 3.0 | 7.0 | 0.00 | 0.00 | 0.00 | 47 | 1017.7 |
| 20260504011645 | 71 | 137 | 4.0 | 8.0 | 0.00 | 0.00 | 0.00 | 47 | 1017.5 |
| 20260504011153 | 72 | 130 | 5.0 | 8.0 | 0.00 | 0.00 | 0.00 | 46 | 1017.5 |
| 20260504010637 | 72 | 111 | 5.0 | 7.0 | 0.00 | 0.00 | 0.00 | 45 | 1017.3 |
| 20260504010148 | 72 | 156 | 3.0 | 6.0 | 0.00 | 0.00 | 0.00 | 45 | 1017.4 |
| 20260504005659 | 73 | 160 | 4.0 | 6.0 | 0.00 | 0.00 | 0.00 | 44 | 1017.4 |
| 20260504005139 | 73 | 127 | 3.0 | 7.0 | 0.00 | 0.00 | 0.00 | 43 | 1017.3 |
| 20260504004651 | 73 | 150 | 4.0 | 9.0 | 0.00 | 0.00 | 0.00 | 42 | 1017.3 |
| 20260504004130 | 74 | 153 | 5.0 | 9.0 | 0.00 | 0.00 | 0.00 | 41 | 1017.5 |
| 20260504003643 | 74 | 145 | 5.0 | 8.0 | 0.00 | 0.00 | 0.00 | 41 | 1017.4 |
| 20260504003154 | 74 | 148 | 4.0 | 12.0 | 0.00 | 0.00 | 0.00 | 41 | 1017.6 |
| 20260504002630 | 75 | 134 | 7.0 | 12.0 | 0.00 | 0.00 | 0.00 | 40 | 1017.5 |
| 20260504002141 | 75 | 159 | 8.0 | 14.0 | 0.00 | 0.00 | 0.00 | 39 | 1017.6 |
| 20260504001634 | 75 | 171 | 8.0 | 14.0 | 0.00 | 0.00 | 0.00 | 39 | 1017.7 |
| 20260504001206 | 75 | 155 | 7.0 | 14.0 | 0.00 | 0.00 | 0.00 | 39 | 1017.7 |
| 20260504000657 | 76 | 179 | 8.0 | 12.0 | 0.00 | 0.00 | 0.00 | 38 | 1017.8 |
| 20260504000137 | 76 | 171 | 6.0 | 15.0 | 0.00 | 0.00 | 0.00 | 40 | 1017.7 |
| 20260503235649 | 76 | 198 | 7.0 | 15.0 | 0.00 | 0.00 | 0.00 | 39 | 1017.8 |
| 20260503235148 | 76 | 209 | 8.0 | 15.0 | 0.00 | 0.00 | 0.00 | 38 | 1017.9 |
| 20260503234639 | 76 | 207 | 7.0 | 13.0 | 0.00 | 0.00 | 0.00 | 37 | 1017.9 |
| 20260503234142 | 76 | 144 | 6.0 | 11.0 | 0.00 | 0.00 | 0.00 | 40 | 1017.9 |
| 20260503233655 | 76 | 148 | 8.0 | 12.0 | 0.00 | 0.00 | 0.00 | 40 | 1017.9 |
| 20260503233136 | 76 | 168 | 6.0 | 12.0 | 0.00 | 0.00 | 0.00 | 41 | 1018.0 |
| 20260503232708 | 76 | 109 | 8.0 | 15.0 | 0.00 | 0.00 | 0.00 | 41 | 1017.9 |
| 20260503232200 | 76 | 169 | 8.0 | 14.0 | 0.00 | 0.00 | 0.00 | 40 | 1017.9 |
| 20260503231643 | 76 | 156 | 6.0 | 15.0 | 0.00 | 0.00 | 0.00 | 40 | 1017.8 |
| 20260503231144 | 76 | 180 | 10.0 | 15.0 | 0.00 | 0.00 | 0.00 | 39 | 1017.8 |
| 20260503230636 | 76 | 123 | 8.0 | 15.0 | 0.00 | 0.00 | 0.00 | 41 | 1017.9 |
| 20260503230136 | 77 | 159 | 9.0 | 15.0 | 0.00 | 0.00 | 0.00 | 41 | 1018.2 |
| 20260503225627 | 77 | 193 | 8.0 | 16.0 | 0.00 | 0.00 | 0.00 | 39 | 1018.1 |
| 20260503225157 | 77 | 180 | 9.0 | 16.0 | 0.00 | 0.00 | 0.00 | 38 | 1018.1 |
| 20260503224647 | 77 | 157 | 4.0 | 15.0 | 0.00 | 0.00 | 0.00 | 40 | 1018.0 |
| 20260503224128 | 77 | 153 | 8.0 | 15.0 | 0.00 | 0.00 | 0.00 | 39 | 1018.1 |
| 20260503223643 | 77 | 221 | 7.0 | 15.0 | 0.00 | 0.00 | 0.00 | 39 | 1018.1 |
| 20260503223145 | 77 | 134 | 10.0 | 15.0 | 0.00 | 0.00 | 0.00 | 39 | 1018.2 |
| 20260503222656 | 77 | 101 | 7.0 | 13.0 | 0.00 | 0.00 | 0.00 | 40 | 1018.3 |
| 20260503222138 | 77 | 131 | 5.0 | 14.0 | 0.00 | 0.00 | 0.00 | 41 | 1018.4 |
| 20260503221651 | 77 | 172 | 8.0 | 14.0 | 0.00 | 0.00 | 0.00 | 40 | 1018.5 |
| 20260503221203 | 76 | 142 | 9.0 | 13.0 | 0.00 | 0.00 | 0.00 | 40 | 1018.4 |
| 20260503220655 | 76 | 138 | 5.0 | 10.0 | 0.00 | 0.00 | 0.00 | 40 | 1018.6 |
| 20260503220128 | 76 | 130 | 6.0 | 16.0 | 0.00 | 0.00 | 0.00 | 40 | 1018.7 |
| 20260503215639 | 77 | 175 | 9.0 | 16.0 | 0.00 | 0.00 | 0.00 | 38 | 1018.7 |
| 20260503215150 | 77 | 137 | 7.0 | 13.0 | 0.00 | 0.00 | 0.00 | 39 | 1018.8 |
| 20260503214632 | 77 | 140 | 4.0 | 15.0 | 0.00 | 0.00 | 0.00 | 40 | 1018.9 |
| 20260503214144 | 77 | 158 | 7.0 | 15.0 | 0.00 | 0.00 | 0.00 | 39 | 1019.0 |
| 20260503213655 | 77 | 229 | 6.0 | 14.0 | 0.00 | 0.00 | 0.00 | 39 | 1019.1 |
| 20260503213135 | 77 | 169 | 7.0 | 14.0 | 0.00 | 0.00 | 0.00 | 39 | 1019.2 |
| 20260503212647 | 77 | 216 | 6.0 | 19.0 | 0.00 | 0.00 | 0.00 | 39 | 1019.1 |
| 20260503212147 | 77 | 182 | 8.0 | 19.0 | 0.00 | 0.00 | 0.00 | 39 | 1019.0 |
| 20260503211658 | 77 | 126 | 11.0 | 16.0 | 0.00 | 0.00 | 0.00 | 38 | 1019.1 |
| 20260503211139 | 77 | 94 | 6.0 | 16.0 | 0.00 | 0.00 | 0.00 | 38 | 1019.3 |
| 20260503210651 | 77 | 145 | 9.0 | 16.0 | 0.00 | 0.00 | 0.00 | 39 | 1019.4 |
| 20260503210132 | 76 | 134 | 8.0 | 16.0 | 0.00 | 0.00 | 0.00 | 38 | 1019.5 |
| 20260503205643 | 77 | 202 | 5.0 | 14.0 | 0.00 | 0.00 | 0.00 | 40 | 1019.8 |
| 20260503205211 | 76 | 161 | 6.0 | 14.0 | 0.00 | 0.00 | 0.00 | 41 | 1019.8 |
| 20260503204631 | 76 | 208 | 6.0 | 15.0 | 0.00 | 0.00 | 0.00 | 40 | 1019.9 |
| 20260503204141 | 76 | 115 | 10.0 | 19.0 | 0.00 | 0.00 | 0.00 | 39 | 1020.0 |
| 20260503203649 | 77 | 134 | 9.0 | 19.0 | 0.00 | 0.00 | 0.00 | 40 | 1020.1 |
| 20260503203131 | 77 | 217 | 7.0 | 15.0 | 0.00 | 0.00 | 0.00 | 37 | 1020.2 |
| 20260503202643 | 77 | 158 | 6.0 | 15.0 | 0.00 | 0.00 | 0.00 | 38 | 1020.3 |
| 20260503202126 | 76 | 182 | 8.0 | 15.0 | 0.00 | 0.00 | 0.00 | 40 | 1020.4 |
| 20260503201657 | 76 | 192 | 8.0 | 15.0 | 0.00 | 0.00 | 0.00 | 39 | 1020.6 |
| 20260503201147 | 76 | 194 | 7.0 | 13.0 | 0.00 | 0.00 | 0.00 | 39 | 1020.6 |
| 20260503200700 | 76 | 194 | 8.0 | 19.0 | 0.00 | 0.00 | 0.00 | 38 | 1020.8 |
| 20260503200136 | 76 | 194 | 9.0 | 19.0 | 0.00 | 0.00 | 0.00 | 37 | 1020.8 |
| 20260503195649 | 76 | 175 | 4.0 | 12.0 | 0.00 | 0.00 | 0.00 | 39 | 1020.7 |
| 20260503195148 | 76 | 240 | 7.0 | 19.0 | 0.00 | 0.00 | 0.00 | 39 | 1020.9 |
| 20260503194640 | 76 | 171 | 10.0 | 19.0 | 0.00 | 0.00 | 0.00 | 40 | 1020.9 |
| 20260503194141 | 75 | 169 | 5.0 | 11.0 | 0.00 | 0.00 | 0.00 | 40 | 1021.0 |
| 20260503193653 | 76 | 180 | 5.0 | 14.0 | 0.00 | 0.00 | 0.00 | 43 | 1020.9 |
| 20260503193138 | 75 | 98 | 7.0 | 14.0 | 0.00 | 0.00 | 0.00 | 41 | 1021.0 |
| 20260503192630 | 76 | 200 | 6.0 | 14.0 | 0.00 | 0.00 | 0.00 | 44 | 1021.2 |
| 20260503192203 | 76 | 140 | 8.0 | 14.0 | 0.00 | 0.00 | 0.00 | 45 | 1021.2 |
| 20260503191639 | 75 | 222 | 4.0 | 12.0 | 0.00 | 0.00 | 0.00 | 43 | 1021.3 |
| 20260503191131 | 74 | 103 | 4.0 | 12.0 | 0.00 | 0.00 | 0.00 | 43 | 1021.4 |
| 20260503190629 | 74 | 107 | 6.0 | 12.0 | 0.00 | 0.00 | 0.00 | 42 | 1021.4 |
| 20260503190139 | 75 | 157 | 7.0 | 12.0 | 0.00 | 0.00 | 0.00 | 44 | 1021.5 |
| 20260503185650 | 76 | 209 | 7.0 | 11.0 | 0.00 | 0.00 | 0.00 | 41 | 1021.7 |
| 20260503185140 | 75 | 152 | 3.0 | 15.0 | 0.00 | 0.00 | 0.00 | 44 | 1021.7 |
| 20260503184650 | 75 | 184 | 10.0 | 18.0 | 0.00 | 0.00 | 0.00 | 43 | 1021.9 |
| 20260503184151 | 76 | 154 | 6.0 | 18.0 | 0.00 | 0.00 | 0.00 | 45 | 1021.9 |
| 20260503183640 | 75 | 213 | 5.0 | 13.0 | 0.00 | 0.00 | 0.00 | 38 | 1022.0 |
| 20260503183151 | 74 | 223 | 4.0 | 13.0 | 0.00 | 0.00 | 0.00 | 41 | 1022.2 |
| 20260503182635 | 75 | 174 | 6.0 | 11.0 | 0.00 | 0.00 | 0.00 | 43 | 1022.2 |
| 20260503182146 | 75 | 159 | 4.0 | 14.0 | 0.00 | 0.00 | 0.00 | 44 | 1022.2 |
| 20260503181648 | 74 | 132 | 6.0 | 18.0 | 0.00 | 0.00 | 0.00 | 44 | 1022.3 |
| 20260503181157 | 75 | 204 | 7.0 | 18.0 | 0.00 | 0.00 | 0.00 | 43 | 1022.5 |
| 20260503180709 | 75 | 188 | 9.0 | 13.0 | 0.00 | 0.00 | 0.00 | 42 | 1022.6 |
| 20260503180212 | 75 | 118 | 5.0 | 19.0 | 0.00 | 0.00 | 0.00 | 44 | 1022.7 |
| 20260503175632 | 74 | 142 | 9.0 | 19.0 | 0.00 | 0.00 | 0.00 | 41 | 1022.9 |
| 20260503175143 | 74 | 171 | 6.0 | 14.0 | 0.00 | 0.00 | 0.00 | 45 | 1022.9 |
| 20260503174646 | 73 | 152 | 6.0 | 13.0 | 0.00 | 0.00 | 0.00 | 42 | 1022.9 |
| 20260503174153 | 74 | 111 | 7.0 | 19.0 | 0.00 | 0.00 | 0.00 | 41 | 1023.0 |
| 20260503173703 | 74 | 107 | 6.0 | 12.0 | 0.00 | 0.00 | 0.00 | 41 | 1023.0 |
| 20260503173153 | 74 | 146 | 7.0 | 16.0 | 0.00 | 0.00 | 0.00 | 40 | 1023.2 |
| 20260503172636 | 74 | 153 | 6.0 | 15.0 | 0.00 | 0.00 | 0.00 | 42 | 1023.2 |
| 20260503172147 | 74 | 165 | 8.0 | 16.0 | 0.00 | 0.00 | 0.00 | 40 | 1023.4 |
| 20260503171658 | 74 | 196 | 5.0 | 16.0 | 0.00 | 0.00 | 0.00 | 42 | 1023.4 |
| 20260503171138 | 74 | 119 | 6.0 | 14.0 | 0.00 | 0.00 | 0.00 | 44 | 1023.4 |
| 20260503170650 | 73 | 128 | 6.0 | 12.0 | 0.00 | 0.00 | 0.00 | 42 | 1023.4 |
| 20260503170148 | 73 | 150 | 6.0 | 11.0 | 0.00 | 0.00 | 0.00 | 42 | 1023.6 |
| 20260503160158 | 72 | 150 | 5.0 | 13.0 | 0.00 | 0.00 | 0.00 | 48 | 1023.9 |
| 20260503150649 | 69 | 203 | 2.0 | 6.0 | 0.00 | 0.00 | 0.00 | 62 | 1024.0 |
| 20260503150155 | 68 | 223 | 0.0 | 4.0 | 0.00 | 0.00 | 0.00 | 66 | 1023.8 |
| 20260503140154 | 57 | 42 | 0.0 | 0.0 | 0.00 | 0.00 | 0.00 | 92 | 1023.7 |
| 20260503131141 | 51 | 42 | 0.0 | 0.0 | 0.00 | 0.00 | 0.00 | 96 | 1023.3 |
| 20260503130640 | 50 | 42 | 0.0 | 0.0 | 0.00 | 0.00 | 0.00 | 96 | 1023.4 |
| 20260503130152 | 50 | 42 | 0.0 | 0.0 | 0.00 | 0.00 | 0.00 | 96 | 1023.3 |
| 20260503120151 | 46 | 39 | 0.0 | 0.0 | 0.00 | 0.00 | 0.00 | 94 | 1023.1 |
| 20260503110641 | 46 | 40 | 0.0 | 4.0 | 0.00 | 0.00 | 0.00 | 93 | 1022.5 |
| 20260503110143 | 46 | 89 | 0.0 | 0.0 | 0.00 | 0.00 | 0.00 | 93 | 1022.3 |
| 20260503100135 | 47 | 90 | 0.0 | 0.0 | 0.00 | 0.00 | 0.00 | 93 | 1022.3 |
| 20260503090139 | 48 | 90 | 0.0 | 0.0 | 0.00 | 0.00 | 0.00 | 92 | 1021.8 |
| 20260503081153 | 49 | 90 | 0.0 | 0.0 | 0.00 | 0.00 | 0.00 | 91 | 1022.1 |
| 20260503080637 | 49 | 90 | 0.0 | 0.0 | 0.00 | 0.00 | 0.00 | 91 | 1022.2 |
| 20260503080148 | 49 | 90 | 0.0 | 0.0 | 0.00 | 0.00 | 0.00 | 91 | 1022.2 |
| 20260503072652 | 50 | 90 | 0.0 | 0.0 | 0.00 | 0.00 | 0.00 | 91 | 1022.5 |
| 20260503072133 | 50 | 90 | 0.0 | 0.0 | 0.00 | 0.00 | 0.00 | 91 | 1022.6 |
| 20260503071627 | 50 | 90 | 0.0 | 0.0 | 0.00 | 0.00 | 0.00 | 91 | 1022.6 |
| 20260503071158 | 50 | 90 | 0.0 | 0.0 | 0.00 | 0.00 | 0.00 | 91 | 1022.8 |
| 20260503070639 | 50 | 90 | 0.0 | 0.0 | 0.00 | 0.00 | 0.00 | 90 | 1022.8 |
| 20260503070150 | 50 | 90 | 0.0 | 0.0 | 0.00 | 0.00 | 0.00 | 91 | 1022.7 |